VLG6814 LIRQ-EBBR

Flight info

Callsign VLG6814
Flight time 1h 46m
Altitude 34000
Route BIBNO DCT BEROK DCT GOLAS DCT TONDA DCT PIMOT DCT AOSTA DCT ORSUD DCT MOLUS DCT GILIR DCT PENDU DCT IXILU DCT GIVOR DCT SORAL DCT IBERA DCT DIK Y37 BATTY
Aircraft A20N/M-SDFGHILORVWXY/LB1

Departure

Time 2026-05-05 07:36
Airport Florence Airport, Peretola (LIRQ)

Arrival

Time 2026-05-05 09:22
Airport Brussels Airport (EBBR)
Time Latitude Longitude Altitude Speed Heading
2026-05-05 07:27 43.80320 11.20018 132 ft 2 kts 161°
2026-05-05 07:27 43.80334 11.20011 133 ft 2 kts 161°
2026-05-05 07:28 43.80347 11.20006 132 ft 1 kts 183°
2026-05-05 07:28 43.80359 11.20011 132 ft 1 kts 221°
2026-05-05 07:28 43.80365 11.20022 132 ft 0 kts 249°
2026-05-05 07:28 43.80367 11.20032 132 ft 0 kts 253°
2026-05-05 07:30 43.80367 11.20031 132 ft 0 kts 253°
2026-05-05 07:31 43.80367 11.20030 132 ft 0 kts 253°
2026-05-05 07:31 43.80367 11.20029 132 ft 0 kts 253°
2026-05-05 07:31 43.80363 11.20015 132 ft 4 kts 251°
2026-05-05 07:31 43.80371 11.19948 132 ft 9 kts 309°
2026-05-05 07:32 43.80415 11.19892 132 ft 0 kts 317°
2026-05-05 07:34 43.80416 11.19892 132 ft 0 kts 317°
2026-05-05 07:34 43.80428 11.19876 132 ft 3 kts 317°
2026-05-05 07:34 43.80453 11.19845 132 ft 6 kts 317°
2026-05-05 07:35 43.80476 11.19772 131 ft 10 kts 274°
2026-05-05 07:35 43.80522 11.19762 131 ft 0 kts 47°
2026-05-05 07:35 43.80711 11.20055 130 ft 82 kts 49°
2026-05-05 07:36 43.81245 11.20911 200 ft 140 kts 53°
2026-05-05 07:36 43.81874 11.21881 830 ft 139 kts 41°
2026-05-05 07:36 43.82761 11.22197 1464 ft 144 kts 343°
2026-05-05 07:36 43.83476 11.21284 2069 ft 147 kts 290°
2026-05-05 07:37 43.83516 11.19960 2685 ft 142 kts 245°
2026-05-05 07:37 43.83044 11.18748 3115 ft 149 kts 233°
2026-05-05 07:37 43.82479 11.17498 3487 ft 165 kts 234°
2026-05-05 07:37 43.81845 11.16056 3857 ft 186 kts 235°
2026-05-05 07:38 43.81175 11.14440 4327 ft 203 kts 240°
2026-05-05 07:38 43.80828 11.12418 4689 ft 234 kts 265°
2026-05-05 07:38 43.80897 11.10160 5231 ft 253 kts 269°
2026-05-05 07:38 43.81021 11.07753 6170 ft 253 kts 268°
2026-05-05 07:39 43.81114 11.05402 7337 ft 244 kts 267°
2026-05-05 07:39 43.81204 11.03056 7982 ft 258 kts 274°
2026-05-05 07:39 43.81873 11.00717 8678 ft 277 kts 300°
2026-05-05 07:39 43.83313 10.98898 9576 ft 291 kts 326°
2026-05-05 07:40 43.85252 10.98074 10409 ft 305 kts 351°
2026-05-05 07:40 43.87396 10.98338 10915 ft 326 kts
2026-05-05 07:40 43.89675 10.99044 11457 ft 338 kts
2026-05-05 07:40 43.91959 10.99538 12202 ft 339 kts
2026-05-05 07:41 43.94272 10.99579 12946 ft 336 kts 345°
2026-05-05 07:41 43.96360 10.98276 13686 ft 326 kts 316°
2026-05-05 07:41 43.97697 10.95929 14361 ft 319 kts 291°
2026-05-05 07:41 43.98518 10.93088 15047 ft 321 kts 287°
2026-05-05 07:42 43.99335 10.90183 15713 ft 326 kts 288°
2026-05-05 07:42 44.00196 10.87259 16405 ft 329 kts 289°
2026-05-05 07:42 44.01043 10.84479 17026 ft 332 kts 289°
2026-05-05 07:42 44.01963 10.81508 17663 ft 336 kts 290°
2026-05-05 07:43 44.02901 10.78519 18257 ft 340 kts 290°
2026-05-05 07:43 44.03846 10.75526 18860 ft 344 kts 290°
2026-05-05 07:43 44.04773 10.72593 19435 ft 347 kts 291°
2026-05-05 07:43 44.05748 10.69514 20029 ft 350 kts 291°
2026-05-05 07:44 44.06725 10.66426 20613 ft 354 kts 291°
2026-05-05 07:44 44.07701 10.63344 21184 ft 357 kts 291°
2026-05-05 07:44 44.08698 10.60194 21755 ft 360 kts 291°
2026-05-05 07:44 44.09707 10.56998 22321 ft 363 kts 291°
2026-05-05 07:45 44.10689 10.53881 22852 ft 366 kts 291°
2026-05-05 07:45 44.11704 10.50656 23371 ft 369 kts 291°
2026-05-05 07:45 44.12720 10.47426 23891 ft 373 kts 291°
2026-05-05 07:45 44.13756 10.44125 24429 ft 375 kts 291°
2026-05-05 07:46 44.14799 10.40800 24968 ft 378 kts 291°
2026-05-05 07:46 44.15841 10.37482 25460 ft 381 kts 291°
2026-05-05 07:46 44.16989 10.34157 25973 ft 384 kts 294°
2026-05-05 07:46 44.18211 10.31022 26468 ft 387 kts 296°
2026-05-05 07:47 44.19514 10.27757 26953 ft 389 kts 296°
2026-05-05 07:47 44.20844 10.24436 27412 ft 392 kts 296°
2026-05-05 07:47 44.22142 10.21184 27846 ft 395 kts 296°
2026-05-05 07:47 44.23439 10.17926 28265 ft 397 kts 296°
2026-05-05 07:48 44.24781 10.14552 28681 ft 400 kts 296°
2026-05-05 07:48 44.26115 10.11188 29086 ft 402 kts 296°
2026-05-05 07:48 44.27410 10.07917 29447 ft 404 kts 296°
2026-05-05 07:48 44.28773 10.04467 29788 ft 407 kts 296°
2026-05-05 07:49 44.30136 10.01019 30141 ft 409 kts 296°
2026-05-05 07:49 44.31501 9.97561 30460 ft 411 kts 295°
2026-05-05 07:49 44.32810 9.94238 30754 ft 413 kts 295°
2026-05-05 07:49 44.34219 9.90657 31070 ft 414 kts 295°
2026-05-05 07:50 44.35598 9.87142 31351 ft 416 kts 295°
2026-05-05 07:50 44.36990 9.83590 31642 ft 418 kts 295°
2026-05-05 07:50 44.38364 9.80086 31935 ft 419 kts 295°
2026-05-05 07:50 44.39751 9.76538 32338 ft 417 kts 295°
2026-05-05 07:51 44.41143 9.72974 32692 ft 416 kts 295°
2026-05-05 07:51 44.42512 9.69464 32975 ft 417 kts 295°
2026-05-05 07:51 44.43895 9.65911 33216 ft 418 kts 295°
2026-05-05 07:51 44.45301 9.62403 33430 ft 420 kts 297°
2026-05-05 07:52 44.46870 9.58931 33562 ft 422 kts 300°
2026-05-05 07:52 44.48502 9.55529 33694 ft 423 kts 300°
2026-05-05 07:52 44.50148 9.52127 33827 ft 423 kts 300°
2026-05-05 07:52 44.51775 9.48760 33953 ft 424 kts 300°
2026-05-05 07:53 44.55065 9.41926 33953 ft 425 kts 300°
2026-05-05 07:53 44.58353 9.35071 33951 ft 426 kts 300°
2026-05-05 07:54 44.61620 9.28234 33947 ft 426 kts 299°
2026-05-05 07:54 44.64819 9.21524 33951 ft 426 kts 299°
2026-05-05 07:55 44.68106 9.14612 33944 ft 426 kts 299°
2026-05-05 07:55 44.71309 9.07857 33948 ft 428 kts 299°
2026-05-05 07:56 44.74592 9.00919 33948 ft 428 kts 300°
2026-05-05 07:56 44.77855 8.94012 33951 ft 428 kts 299°
2026-05-05 07:57 44.81103 8.87121 33959 ft 428 kts 299°
2026-05-05 07:57 44.84362 8.80181 33971 ft 429 kts 299°
2026-05-05 07:58 44.87625 8.73219 33964 ft 429 kts 299°
2026-05-05 07:58 44.90910 8.66192 33968 ft 430 kts 299°
2026-05-05 07:59 44.94176 8.59190 33974 ft 430 kts 298°
2026-05-05 07:59 44.97437 8.52174 33975 ft 431 kts 299°
2026-05-05 08:00 45.00713 8.45113 33973 ft 431 kts 298°
2026-05-05 08:00 45.03965 8.38077 33981 ft 431 kts 298°
2026-05-05 08:01 45.07233 8.31004 33979 ft 431 kts 298°
2026-05-05 08:01 45.10618 8.24445 33975 ft 434 kts 304°
2026-05-05 08:02 45.14760 8.18083 33979 ft 435 kts 311°
2026-05-05 08:02 45.19047 8.12531 33985 ft 432 kts 313°
2026-05-05 08:03 45.23517 8.06827 33984 ft 431 kts 313°
2026-05-05 08:03 45.27850 8.01266 33984 ft 430 kts 312°
2026-05-05 08:04 45.32235 7.95612 33988 ft 430 kts 313°
2026-05-05 08:04 45.36583 7.89993 33984 ft 429 kts 312°
2026-05-05 08:05 45.40971 7.84304 33991 ft 430 kts 312°
2026-05-05 08:05 45.45365 7.78593 33996 ft 431 kts 313°
2026-05-05 08:06 45.49762 7.72874 33998 ft 430 kts 313°
2026-05-05 08:06 45.54171 7.67224 33991 ft 433 kts 313°
2026-05-05 08:07 45.58625 7.61568 34003 ft 433 kts 313°
2026-05-05 08:07 45.63134 7.55813 34003 ft 435 kts 313°
2026-05-05 08:08 45.67580 7.50119 33986 ft 435 kts 313°
2026-05-05 08:08 45.72080 7.44337 33982 ft 436 kts 314°
2026-05-05 08:09 45.76551 7.38581 33978 ft 438 kts 314°
2026-05-05 08:09 45.81039 7.33187 33969 ft 441 kts 319°
2026-05-05 08:10 45.86106 7.27997 33963 ft 442 kts 320°
2026-05-05 08:10 45.91042 7.23007 33972 ft 443 kts 320°
2026-05-05 08:11 45.96041 7.17914 33963 ft 445 kts 320°
2026-05-05 08:11 46.00954 7.12900 33962 ft 444 kts 320°
2026-05-05 08:12 46.05989 7.07741 33975 ft 445 kts 320°
2026-05-05 08:12 46.10856 7.02740 33941 ft 446 kts 320°
2026-05-05 08:13 46.15760 6.97689 33961 ft 448 kts 320°
2026-05-05 08:13 46.20767 6.92519 33974 ft 448 kts 321°
2026-05-05 08:14 46.25744 6.87371 33973 ft 448 kts 320°
2026-05-05 08:14 46.30698 6.82229 33970 ft 448 kts 320°
2026-05-05 08:15 46.35724 6.76996 33948 ft 448 kts 320°
2026-05-05 08:15 46.40699 6.71812 33946 ft 449 kts 321°
2026-05-05 08:16 46.45940 6.66943 33948 ft 453 kts 328°
2026-05-05 08:16 46.51490 6.62893 33941 ft 454 kts 332°
2026-05-05 08:17 46.57166 6.58945 33939 ft 455 kts 332°
2026-05-05 08:17 46.62837 6.54965 33930 ft 455 kts 332°
2026-05-05 08:18 46.68455 6.50994 33913 ft 456 kts 332°
2026-05-05 08:18 46.74127 6.46971 33911 ft 457 kts 332°
2026-05-05 08:19 46.79797 6.42938 33895 ft 457 kts 332°
2026-05-05 08:19 46.85460 6.38903 33902 ft 457 kts 332°
2026-05-05 08:20 46.91155 6.34830 33894 ft 458 kts 331°
2026-05-05 08:20 46.96824 6.30768 33896 ft 458 kts 331°
2026-05-05 08:21 47.02489 6.26693 33889 ft 458 kts 331°
2026-05-05 08:21 47.08126 6.22637 33898 ft 458 kts 332°
2026-05-05 08:22 47.13793 6.18565 33904 ft 458 kts 331°
2026-05-05 08:22 47.19461 6.14471 33901 ft 458 kts 331°
2026-05-05 08:23 47.25125 6.10367 33906 ft 458 kts 331°
2026-05-05 08:23 47.30802 6.06576 33907 ft 460 kts 338°
2026-05-05 08:24 47.36986 6.04102 33899 ft 463 kts 349°
2026-05-05 08:24 47.43312 6.03310 33903 ft 464 kts
2026-05-05 08:25 47.49759 6.03503 33903 ft 465 kts
2026-05-05 08:25 47.56237 6.03728 33897 ft 466 kts
2026-05-05 08:26 47.62679 6.03884 33902 ft 466 kts
2026-05-05 08:26 47.69124 6.04040 33905 ft 466 kts
2026-05-05 08:27 47.75543 6.04915 33898 ft 465 kts 11°
2026-05-05 08:27 47.81817 6.06953 33901 ft 464 kts 16°
2026-05-05 08:28 47.88039 6.09351 33898 ft 464 kts 16°
2026-05-05 08:28 47.94264 6.11732 33896 ft 464 kts 16°
2026-05-05 08:29 48.00433 6.14077 33887 ft 465 kts 16°
2026-05-05 08:30 48.09674 6.17582 33874 ft 465 kts 16°
2026-05-05 08:30 48.15916 6.19954 33876 ft 465 kts 15°
2026-05-05 08:31 48.22058 6.22294 33877 ft 466 kts 15°
2026-05-05 08:31 48.28246 6.24657 33877 ft 466 kts 15°
2026-05-05 08:32 48.34368 6.27002 33879 ft 467 kts 15°
2026-05-05 08:32 48.40565 6.29379 33879 ft 466 kts 15°
2026-05-05 08:33 48.46799 6.31776 33878 ft 466 kts 15°
2026-05-05 08:33 48.53021 6.34174 33877 ft 466 kts 15°
2026-05-05 08:34 48.59312 6.36608 33879 ft 467 kts 14°
2026-05-05 08:34 48.65568 6.38783 33881 ft 467 kts
2026-05-05 08:35 48.71937 6.39867 33883 ft 466 kts
2026-05-05 08:35 48.78345 6.40461 33876 ft 465 kts
2026-05-05 08:36 48.84428 6.41035 33874 ft 465 kts
2026-05-05 08:36 48.91002 6.41692 33873 ft 465 kts
2026-05-05 08:37 48.97162 6.42319 33872 ft 464 kts
2026-05-05 08:37 49.03646 6.42979 33874 ft 463 kts
2026-05-05 08:38 49.09855 6.43002 33870 ft 462 kts 354°
2026-05-05 08:38 49.16179 6.41765 33869 ft 458 kts 345°
2026-05-05 08:39 49.22195 6.39473 33868 ft 456 kts 340°
2026-05-05 08:39 49.28311 6.36876 33866 ft 456 kts 341°
2026-05-05 08:40 49.34318 6.34363 33864 ft 456 kts 341°
2026-05-05 08:40 49.40418 6.31834 33867 ft 456 kts 341°
2026-05-05 08:41 49.46508 6.29308 33871 ft 456 kts 341°
2026-05-05 08:41 49.52465 6.26836 33872 ft 456 kts 341°
2026-05-05 08:42 49.58563 6.24350 33742 ft 450 kts 341°
2026-05-05 08:42 49.61553 6.23128 33232 ft 448 kts 341°
2026-05-05 08:42 49.64521 6.21909 32634 ft 448 kts 341°
2026-05-05 08:42 49.67494 6.20686 32140 ft 444 kts 341°
2026-05-05 08:43 49.70200 6.19571 31662 ft 442 kts 341°
2026-05-05 08:43 49.73267 6.18305 31025 ft 441 kts 342°
2026-05-05 08:43 49.76190 6.17093 30354 ft 442 kts 342°
2026-05-05 08:43 49.79109 6.15886 29685 ft 442 kts 342°
2026-05-05 08:44 49.82038 6.14676 29198 ft 438 kts 342°
2026-05-05 08:44 49.84963 6.13464 28760 ft 432 kts 342°
2026-05-05 08:44 49.87812 6.12367 28290 ft 429 kts 344°
2026-05-05 08:44 49.90685 6.11352 27819 ft 424 kts 345°
2026-05-05 08:45 49.93397 6.10411 27379 ft 420 kts 345°
2026-05-05 08:45 49.96293 6.09404 26899 ft 416 kts 345°
2026-05-05 08:45 49.99086 6.08427 26445 ft 412 kts 345°
2026-05-05 08:45 50.01862 6.07450 25989 ft 408 kts 345°
2026-05-05 08:46 50.04250 6.06608 25580 ft 404 kts 345°
2026-05-05 08:46 50.07167 6.05577 25075 ft 401 kts 345°
2026-05-05 08:46 50.09847 6.04629 24625 ft 397 kts 345°
2026-05-05 08:46 50.12394 6.03726 24171 ft 394 kts 345°
2026-05-05 08:47 50.15096 6.02766 23699 ft 391 kts 345°
2026-05-05 08:47 50.17693 6.01843 23271 ft 387 kts 345°
2026-05-05 08:47 50.20252 6.00933 22835 ft 384 kts 346°
2026-05-05 08:47 50.22835 6.00012 22388 ft 381 kts 346°
2026-05-05 08:48 50.25389 5.99102 21939 ft 378 kts 346°
2026-05-05 08:48 50.27880 5.98214 21501 ft 375 kts 346°
2026-05-05 08:48 50.30391 5.97318 21061 ft 372 kts 346°
2026-05-05 08:48 50.32911 5.96418 20624 ft 369 kts 346°
2026-05-05 08:49 50.35185 5.95605 20226 ft 367 kts 346°
2026-05-05 08:49 50.37720 5.94696 19776 ft 364 kts 346°
2026-05-05 08:49 50.40158 5.93820 19353 ft 361 kts 346°
2026-05-05 08:49 50.42589 5.92946 18932 ft 358 kts 346°
2026-05-05 08:50 50.44924 5.92105 18506 ft 355 kts 346°
2026-05-05 08:50 50.47333 5.91236 18058 ft 353 kts 347°
2026-05-05 08:50 50.49671 5.90391 17638 ft 351 kts 347°
2026-05-05 08:50 50.52015 5.89545 17226 ft 348 kts 347°
2026-05-05 08:51 50.54345 5.88704 16797 ft 346 kts 347°
2026-05-05 08:51 50.56645 5.87873 16386 ft 343 kts 348°
2026-05-05 08:51 50.58890 5.87061 15989 ft 340 kts 348°
2026-05-05 08:51 50.61214 5.86221 15562 ft 338 kts 348°
2026-05-05 08:52 50.63283 5.85472 15330 ft 330 kts 348°
2026-05-05 08:52 50.65503 5.84715 15305 ft 313 kts 354°
2026-05-05 08:52 50.67584 5.85018 15271 ft 295 kts 24°
2026-05-05 08:52 50.69150 5.86773 15255 ft 277 kts 52°
2026-05-05 08:53 50.70035 5.89334 15254 ft 268 kts 76°
2026-05-05 08:53 50.70157 5.92219 15267 ft 267 kts 100°
2026-05-05 08:53 50.69529 5.94914 15298 ft 267 kts 124°
2026-05-05 08:53 50.68264 5.96973 15298 ft 268 kts 148°
2026-05-05 08:54 50.66551 5.98051 15302 ft 268 kts 166°
2026-05-05 08:54 50.64806 5.98647 15295 ft 268 kts 167°
2026-05-05 08:54 50.63009 5.99250 15296 ft 268 kts 167°
2026-05-05 08:54 50.61173 5.99888 15304 ft 267 kts 166°
2026-05-05 08:55 50.59457 6.00503 15307 ft 267 kts 166°
2026-05-05 08:55 50.57617 6.00825 15286 ft 268 kts 188°
2026-05-05 08:55 50.55886 5.99854 15288 ft 269 kts 213°
2026-05-05 08:55 50.54592 5.97895 15289 ft 271 kts 237°
2026-05-05 08:56 50.53911 5.95152 15288 ft 274 kts 263°
2026-05-05 08:56 50.54121 5.92087 15296 ft 301 kts 292°
2026-05-05 08:56 50.55217 5.89218 15327 ft 327 kts 305°
2026-05-05 08:56 50.56545 5.86241 15327 ft 336 kts 305°
2026-05-05 08:57 50.57849 5.83291 15326 ft 338 kts 304°
2026-05-05 08:57 50.59072 5.80495 15318 ft 338 kts 304°
2026-05-05 08:57 50.60443 5.77344 15327 ft 338 kts 304°
2026-05-05 08:57 50.61743 5.74338 15310 ft 339 kts 304°
2026-05-05 08:58 50.63021 5.71378 15237 ft 335 kts 304°
2026-05-05 08:58 50.64318 5.68365 14842 ft 334 kts 305°
2026-05-05 08:58 50.65607 5.65364 14346 ft 333 kts 305°
2026-05-05 08:58 50.66850 5.62469 14097 ft 332 kts 305°
2026-05-05 08:59 50.68148 5.59444 13853 ft 331 kts 305°
2026-05-05 08:59 50.69394 5.56535 13598 ft 330 kts 305°
2026-05-05 08:59 50.70654 5.53592 13356 ft 328 kts 305°
2026-05-05 08:59 50.71915 5.50641 13114 ft 327 kts 305°
2026-05-05 09:00 50.73150 5.47749 12876 ft 325 kts 305°
2026-05-05 09:00 50.74372 5.44882 12636 ft 324 kts 305°
2026-05-05 09:00 50.75610 5.41973 12395 ft 322 kts 305°
2026-05-05 09:00 50.76848 5.39063 12158 ft 321 kts 305°
2026-05-05 09:01 50.78066 5.36194 11937 ft 321 kts 305°
2026-05-05 09:01 50.79307 5.33266 11710 ft 320 kts 304°
2026-05-05 09:01 50.80490 5.30473 11469 ft 319 kts 304°
2026-05-05 09:01 50.81729 5.27544 11208 ft 318 kts 304°
2026-05-05 09:02 50.82939 5.24678 10971 ft 317 kts 305°
2026-05-05 09:02 50.84083 5.21970 10738 ft 316 kts 305°
2026-05-05 09:02 50.85289 5.19118 10505 ft 312 kts 304°
2026-05-05 09:02 50.86478 5.16276 10258 ft 305 kts 302°
2026-05-05 09:03 50.87371 5.13344 10030 ft 299 kts 289°
2026-05-05 09:03 50.87632 5.10504 9759 ft 296 kts 266°
2026-05-05 09:03 50.87094 5.07221 9355 ft 294 kts 247°
2026-05-05 09:03 50.86245 5.04297 8980 ft 294 kts 244°
2026-05-05 09:04 50.85362 5.01501 8598 ft 293 kts 243°
2026-05-05 09:04 50.84449 4.98648 8231 ft 291 kts 243°
2026-05-05 09:04 50.83544 4.95825 7858 ft 289 kts 243°
2026-05-05 09:04 50.82696 4.93180 7519 ft 288 kts 243°
2026-05-05 09:05 50.81770 4.90310 7122 ft 287 kts 243°
2026-05-05 09:05 50.80928 4.87697 6767 ft 286 kts 243°
2026-05-05 09:05 50.80098 4.85117 6432 ft 284 kts 243°
2026-05-05 09:05 50.79152 4.82176 6037 ft 283 kts 243°
2026-05-05 09:06 50.78281 4.79464 5689 ft 281 kts 243°
2026-05-05 09:06 50.77512 4.77073 5365 ft 280 kts 243°
2026-05-05 09:06 50.76580 4.74177 4986 ft 278 kts 243°
2026-05-05 09:06 50.75714 4.71500 4706 ft 273 kts 243°
2026-05-05 09:07 50.74898 4.68992 4538 ft 265 kts 243°
2026-05-05 09:07 50.74068 4.66452 4377 ft 257 kts 243°
2026-05-05 09:07 50.73266 4.64006 4219 ft 249 kts 243°
2026-05-05 09:07 50.72501 4.61678 4067 ft 242 kts 243°
2026-05-05 09:08 50.71737 4.59352 3845 ft 237 kts 243°
2026-05-05 09:08 50.71037 4.57217 3606 ft 235 kts 243°
2026-05-05 09:08 50.70316 4.54971 3467 ft 229 kts 249°
2026-05-05 09:08 50.70067 4.52579 3364 ft 215 kts 276°
2026-05-05 09:09 50.70249 4.50341 3313 ft 207 kts 289°
2026-05-05 09:09 50.70756 4.48335 3281 ft 205 kts 300°
2026-05-05 09:09 50.71542 4.46498 3267 ft 199 kts 323°
2026-05-05 09:09 50.72575 4.45260 3266 ft 189 kts 331°
2026-05-05 09:10 50.73663 4.44166 3243 ft 187 kts 333°
2026-05-05 09:10 50.74856 4.43589 3162 ft 179 kts
2026-05-05 09:10 50.76061 4.43883 2893 ft 178 kts 17°
2026-05-05 09:10 50.77250 4.44411 2528 ft 179 kts 19°
2026-05-05 09:11 50.78434 4.44947 2271 ft 174 kts 18°
2026-05-05 09:11 50.79492 4.45398 2057 ft 169 kts 17°
2026-05-05 09:11 50.80612 4.45855 1824 ft 159 kts 17°
2026-05-05 09:11 50.81655 4.46275 1624 ft 149 kts 17°
2026-05-05 09:12 50.82582 4.46650 1442 ft 139 kts 17°
2026-05-05 09:12 50.83478 4.47014 1256 ft 132 kts 17°
2026-05-05 09:12 50.84350 4.47370 1086 ft 130 kts 17°
2026-05-05 09:12 50.85215 4.47722 916 ft 130 kts 16°
2026-05-05 09:13 50.86085 4.48078 740 ft 129 kts 16°
2026-05-05 09:13 50.86946 4.48429 563 ft 129 kts 15°
2026-05-05 09:13 50.87781 4.48778 394 ft 128 kts 15°
2026-05-05 09:13 50.88611 4.49111 328 ft 102 kts 28°
2026-05-05 09:14 50.89346 4.49695 548 ft 131 kts 20°
2026-05-05 09:14 50.90221 4.50026 1177 ft 136 kts 13°
2026-05-05 09:14 50.91116 4.50211 1925 ft 137 kts 359°
2026-05-05 09:14 50.91946 4.49392 2397 ft 161 kts 310°
2026-05-05 09:15 50.92521 4.47787 2805 ft 182 kts 305°
2026-05-05 09:15 50.93226 4.45974 2984 ft 203 kts 304°
2026-05-05 09:15 50.93666 4.43841 2970 ft 212 kts 273°
2026-05-05 09:15 50.93275 4.41639 2936 ft 217 kts 238°
2026-05-05 09:16 50.92170 4.40115 2817 ft 215 kts 205°
2026-05-05 09:16 50.90789 4.39238 2703 ft 214 kts 197°
2026-05-05 09:16 50.89476 4.38535 2584 ft 214 kts 196°
2026-05-05 09:16 50.88031 4.37784 2456 ft 214 kts 196°
2026-05-05 09:17 50.86634 4.37064 2328 ft 214 kts 196°
2026-05-05 09:17 50.85284 4.36376 2208 ft 212 kts 196°
2026-05-05 09:17 50.83922 4.35689 2111 ft 207 kts 196°
2026-05-05 09:17 50.82562 4.35169 1979 ft 192 kts 177°
2026-05-05 09:18 50.81430 4.35744 1952 ft 169 kts 138°
2026-05-05 09:18 50.80772 4.37160 1977 ft 159 kts 112°
2026-05-05 09:18 50.80318 4.38740 1987 ft 158 kts 109°
2026-05-05 09:18 50.79906 4.40279 1989 ft 158 kts 108°
2026-05-05 09:19 50.79630 4.41921 1970 ft 153 kts 82°
2026-05-05 09:19 50.79966 4.43479 1980 ft 152 kts 62°
2026-05-05 09:19 50.80468 4.44774 1823 ft 150 kts 48°
2026-05-05 09:19 50.81289 4.45817 1645 ft 149 kts 28°
2026-05-05 09:20 50.82259 4.46434 1512 ft 150 kts 21°
2026-05-05 09:20 50.83194 4.46891 1342 ft 142 kts 18°
2026-05-05 09:20 50.84100 4.47270 1119 ft 131 kts 16°
2026-05-05 09:20 50.84976 4.47621 946 ft 129 kts 15°
2026-05-05 09:21 50.85830 4.47970 781 ft 129 kts 15°
2026-05-05 09:21 50.86690 4.48322 614 ft 129 kts 15°
2026-05-05 09:21 50.87542 4.48668 476 ft 128 kts 15°
2026-05-05 09:21 50.88392 4.49022 303 ft 127 kts 15°
2026-05-05 09:22 50.89238 4.49365 158 ft 121 kts 14°
2026-05-05 09:22 50.89926 4.49648 142 ft 77 kts 15°
2026-05-05 09:22 50.90185 4.49716 135 ft 21 kts 352°
2026-05-05 09:22 50.90305 4.49673 134 ft 11 kts 344°
2026-05-05 09:23 50.90389 4.49634 132 ft 13 kts 345°
2026-05-05 09:23 50.90492 4.49607 128 ft 16 kts 10°
2026-05-05 09:23 50.90614 4.49657 122 ft 19 kts 15°
2026-05-05 09:23 50.90757 4.49714 115 ft 22 kts 10°
2026-05-05 09:24 50.90786 4.49552 115 ft 20 kts 244°
2026-05-05 09:24 50.90731 4.49363 119 ft 17 kts 246°
2026-05-05 09:24 50.90681 4.49188 120 ft 17 kts 246°
2026-05-05 09:24 50.90628 4.49004 119 ft 18 kts 246°
2026-05-05 09:25 50.90572 4.48812 117 ft 20 kts 245°
2026-05-05 09:25 50.90513 4.48608 115 ft 20 kts 246°
2026-05-05 09:25 50.90452 4.48400 115 ft 20 kts 246°
2026-05-05 09:25 50.90393 4.48196 115 ft 20 kts 246°
2026-05-05 09:26 50.90344 4.48048 114 ft 11 kts 210°
2026-05-05 09:26 50.90284 4.48077 117 ft 6 kts 154°
2026-05-05 09:26 50.90267 4.48089 118 ft 0 kts 155°